{"data":{"norad_id":68776,"epoch":"2026-09-18T20:38:29.863104Z","epoch_age_seconds":181676,"freshness":"STALE","line1":"1 68776U 26086L   26261.86006786  .00011820  00000+0  36791-3 0  9994","line2":"2 68776  97.2846 297.3130 0001334  92.0665 268.0730 15.33443124 23434","mean_motion":15.33443124,"eccentricity":0.0001334,"inclination_deg":97.2846,"raan_deg":297.313,"arg_perigee_deg":92.0665,"mean_anomaly_deg":268.073,"bstar":0.00036791,"rev_number":2343,"period_min":93.906319540809,"perigee_km":464.63580846007,"apogee_km":466.46170381981,"semimajor_km":6843.6857561399,"source":"CELESTRAK","updated_at":"2026-09-20T09:00:43.999778Z"}}